When you browse on this site, cookies collect data to enhance your experience and personalize the content and advertising you see.
Visit our Privacy Policy to learn more. By continuing to use the site, you agree to this use of cookies and data.
  • în România
  • Lista ţărilor
  • Pe 7 zile
  • Temperatura apei
  • Hartă satelitară
  • Meteo pe hartă
  • Widget-uri
  • user-avatar
    Intrare

    Meteo pe oră la Achtrup

    Astăzi, 25 Aprilie, Joi

    Timp Temperatura Precipitaţii Vânt Presiune Umiditate
    00:00 +14°C° 0.2 mm 6 m/s 752 mmHg 82%
    01:00 +14°C° 0.2 mm 6 m/s 752 mmHg 84%
    02:00 +13°C° 0.6 mm 5 m/s 752 mmHg 88%
    03:00 +12°C° 0.6 mm 5 m/s 753 mmHg 92%
    04:00 +11°C° 0.6 mm 4 m/s 753 mmHg 96%
    05:00 +11°C° 0.2 mm 4 m/s 754 mmHg 94%
    06:00 +11°C° 0.2 mm 3 m/s 754 mmHg 93%
    07:00 +12°C° 0.2 mm 2 m/s 755 mmHg 92%
    08:00 +13°C° 0 mm 2 m/s 755 mmHg 86%
    09:00 +13°C° 0 mm 3 m/s 756 mmHg 79%
    10:00 +16°C° 0 mm 3 m/s 756 mmHg 72%
    11:00 +17°C° 0 mm 3 m/s 756 mmHg 65%
    12:00 +18°C° 0 mm 4 m/s 756 mmHg 57%
    13:00 +19°C° 0 mm 4 m/s 757 mmHg 49%
    14:00 +19°C° 0 mm 4 m/s 757 mmHg 50%
    15:00 +20°C° 0 mm 4 m/s 756 mmHg 51%
    16:00 +20°C° 0 mm 3 m/s 756 mmHg 52%
    17:00 +19°C° 0 mm 3 m/s 757 mmHg 59%
    18:00 +17°C° 0 mm 3 m/s 757 mmHg 66%
    19:00 +16°C° 0 mm 3 m/s 757 mmHg 73%
    20:00 +14°C° 0 mm 4 m/s 757 mmHg 74%
    21:00 +14°C° 0 mm 4 m/s 757 mmHg 74%
    22:00 +13°C° 0 mm 5 m/s 757 mmHg 74%
    23:00 +13°C° 0 mm 5 m/s 757 mmHg 75%

    Mâine, 26 Aprilie, Vineri

    Timp Temperatura Precipitaţii Vânt Presiune Umiditate
    00:00 +12°C° 0 mm 5 m/s 757 mmHg 75%
    01:00 +12°C° 0 mm 5 m/s 757 mmHg 76%
    02:00 +12°C° 0 mm 5 m/s 756 mmHg 76%
    03:00 +11°C° 0 mm 6 m/s 756 mmHg 75%
    04:00 +11°C° 0 mm 6 m/s 756 mmHg 74%
    05:00 +12°C° 0 mm 5 m/s 756 mmHg 75%
    06:00 +12°C° 0 mm 4 m/s 756 mmHg 76%
    07:00 +12°C° 0 mm 3 m/s 756 mmHg 76%
    08:00 +13°C° 0.1 mm 3 m/s 756 mmHg 74%
    09:00 +15°C° 0.1 mm 2 m/s 756 mmHg 72%
    10:00 +15°C° 0.1 mm 2 m/s 756 mmHg 71%
    11:00 +16°C° 0.2 mm 2 m/s 756 mmHg 71%
    12:00 +16°C° 0.2 mm 2 m/s 756 mmHg 72%
    13:00 +16°C° 0.2 mm 2 m/s 756 mmHg 73%
    14:00 +14°C° 0.2 mm 3 m/s 756 mmHg 76%
    15:00 +13°C° 0.2 mm 4 m/s 756 mmHg 80%
    16:00 +13°C° 0.2 mm 5 m/s 756 mmHg 84%
    17:00 +12°C° 0 mm 5 m/s 756 mmHg 86%
    18:00 +10°C° 0 mm 6 m/s 756 mmHg 89%
    19:00 +8°C° 0 mm 6 m/s 756 mmHg 91%
    20:00 +8°C° 0 mm 6 m/s 757 mmHg 91%
    21:00 +8°C° 0 mm 5 m/s 757 mmHg 91%
    22:00 +8°C° 0 mm 5 m/s 757 mmHg 91%
    23:00 +8°C° 0 mm 5 m/s 757 mmHg 91%

    Poimâine, 27 Aprilie, Sâmbătă

    Timp Temperatura Precipitaţii Vânt Presiune Umiditate
    00:00 +7°C° 0 mm 5 m/s 757 mmHg 91%
    01:00 +7°C° 0 mm 4 m/s 757 mmHg 90%
    02:00 +7°C° 0 mm 4 m/s 756 mmHg 91%
    03:00 +7°C° 0 mm 4 m/s 756 mmHg 92%
    04:00 +8°C° 0 mm 3 m/s 756 mmHg 92%
    05:00 +7°C° 0 mm 4 m/s 756 mmHg 89%
    06:00 +8°C° 0 mm 4 m/s 756 mmHg 86%
    07:00 +8°C° 0 mm 4 m/s 756 mmHg 83%
    08:00 +8°C° 0 mm 4 m/s 756 mmHg 83%
    09:00 +10°C° 0 mm 4 m/s 756 mmHg 83%
    10:00 +10°C° 0 mm 4 m/s 756 mmHg 83%
    11:00 +10°C° 0.3 mm 4 m/s 756 mmHg 85%
    12:00 +10°C° 0.3 mm 4 m/s 756 mmHg 88%
    13:00 +9°C° 0.3 mm 3 m/s 756 mmHg 90%
    14:00 +9°C° 0.5 mm 3 m/s 756 mmHg 91%
    15:00 +9°C° 0.5 mm 3 m/s 756 mmHg 91%
    16:00 +10°C° 0.5 mm 3 m/s 756 mmHg 92%
    17:00 +9°C° 0 mm 3 m/s 756 mmHg 92%
    18:00 +9°C° 0 mm 3 m/s 756 mmHg 91%
    19:00 +9°C° 0 mm 3 m/s 757 mmHg 91%
    20:00 +8°C° 0 mm 3 m/s 757 mmHg 93%
    21:00 +7°C° 0 mm 2 m/s 757 mmHg 94%
    22:00 +7°C° 0 mm 2 m/s 758 mmHg 96%
    23:00 +6°C° 0 mm 2 m/s 758 mmHg 96%

    28 Aprilie, Duminică

    Timp Temperatura Precipitaţii Vânt Presiune Umiditate
    00:00 +6°C° 0 mm 2 m/s 759 mmHg 96%
    01:00 +6°C° 0 mm 2 m/s 759 mmHg 95%
    02:00 +6°C° 0 mm 2 m/s 759 mmHg 95%
    03:00 +6°C° 0 mm 2 m/s 760 mmHg 95%
    04:00 +5°C° 0 mm 2 m/s 760 mmHg 95%
    05:00 +6°C° 0 mm 2 m/s 761 mmHg 93%
    06:00 +7°C° 0 mm 2 m/s 761 mmHg 92%
    07:00 +9°C° 0 mm 1 m/s 761 mmHg 90%
    08:00 +10°C° 0 mm 1 m/s 762 mmHg 83%
    09:00 +12°C° 0 mm 1 m/s 763 mmHg 77%
    10:00 +13°C° 0 mm 1 m/s 763 mmHg 70%
    11:00 +14°C° 0 mm 1 m/s 764 mmHg 67%
    12:00 +15°C° 0 mm 1 m/s 764 mmHg 64%
    13:00 +15°C° 0 mm 1 m/s 764 mmHg 61%
    14:00 +16°C° 0 mm 2 m/s 765 mmHg 61%
    15:00 +16°C° 0 mm 2 m/s 765 mmHg 62%
    16:00 +16°C° 0 mm 2 m/s 765 mmHg 63%
    17:00 +15°C° 0 mm 2 m/s 765 mmHg 68%
    18:00 +14°C° 0 mm 2 m/s 765 mmHg 73%
    19:00 +13°C° 0 mm 2 m/s 766 mmHg 78%
    20:00 +13°C° 0 mm 2 m/s 766 mmHg 81%
    21:00 +12°C° 0 mm 2 m/s 766 mmHg 83%
    22:00 +10°C° 0 mm 2 m/s 767 mmHg 86%
    23:00 +10°C° 0.1 mm 2 m/s 767 mmHg 88%

    29 Aprilie, Luni

    Timp Temperatura Precipitaţii Vânt Presiune Umiditate
    00:00 +10°C° 0.1 mm 2 m/s 767 mmHg 89%
    01:00 +10°C° 0.1 mm 2 m/s 767 mmHg 91%
    02:00 +9°C° 0 mm 3 m/s 767 mmHg 93%
    03:00 +9°C° 0 mm 3 m/s 767 mmHg 94%
    04:00 +9°C° 0 mm 3 m/s 767 mmHg 96%
    05:00 +8°C° 0 mm 4 m/s 767 mmHg 90%
    06:00 +7°C° 0 mm 4 m/s 767 mmHg 84%
    07:00 +7°C° 0 mm 5 m/s 767 mmHg 79%
    08:00 +8°C° 0 mm 5 m/s 767 mmHg 74%
    09:00 +9°C° 0 mm 5 m/s 767 mmHg 69%
    10:00 +10°C° 0 mm 5 m/s 767 mmHg 63%
    11:00 +11°C° 0 mm 6 m/s 767 mmHg 63%
    12:00 +11°C° 0 mm 6 m/s 767 mmHg 64%
    13:00 +13°C° 0 mm 6 m/s 767 mmHg 64%
    14:00 +13°C° 0 mm 6 m/s 766 mmHg 65%
    15:00 +13°C° 0 mm 6 m/s 766 mmHg 66%
    16:00 +13°C° 0 mm 6 m/s 766 mmHg 67%
    17:00 +13°C° 0 mm 5 m/s 766 mmHg 69%
    18:00 +12°C° 0 mm 4 m/s 766 mmHg 71%
    19:00 +11°C° 0 mm 4 m/s 767 mmHg 73%
    20:00 +10°C° 0 mm 3 m/s 767 mmHg 75%
    21:00 +9°C° 0 mm 3 m/s 767 mmHg 76%
    22:00 +7°C° 0 mm 3 m/s 768 mmHg 78%
    23:00 +7°C° 0 mm 3 m/s 768 mmHg 77%

    30 Aprilie, Marţi

    Timp Temperatura Precipitaţii Vânt Presiune Umiditate
    00:00 +5°C° 0 mm 3 m/s 768 mmHg 76%
    01:00 +5°C° 0 mm 3 m/s 768 mmHg 75%
    02:00 +5°C° 0 mm 3 m/s 768 mmHg 74%
    03:00 +4°C° 0 mm 3 m/s 767 mmHg 73%
    04:00 +4°C° 0 mm 3 m/s 767 mmHg 72%
    05:00 +5°C° 0 mm 4 m/s 767 mmHg 70%
    06:00 +6°C° 0 mm 4 m/s 767 mmHg 69%
    07:00 +6°C° 0 mm 4 m/s 767 mmHg 67%
    08:00 +8°C° 0 mm 5 m/s 768 mmHg 65%
    09:00 +9°C° 0 mm 5 m/s 768 mmHg 62%
    10:00 +10°C° 0 mm 5 m/s 768 mmHg 59%
    11:00 +12°C° 0 mm 5 m/s 767 mmHg 57%
    12:00 +13°C° 0 mm 5 m/s 767 mmHg 56%
    13:00 +13°C° 0 mm 6 m/s 767 mmHg 55%
    14:00 +13°C° 0 mm 6 m/s 767 mmHg 55%
    15:00 +13°C° 0 mm 6 m/s 767 mmHg 55%
    16:00 +13°C° 0 mm 6 m/s 766 mmHg 56%
    17:00 +12°C° 0 mm 5 m/s 766 mmHg 60%
    18:00 +11°C° 0 mm 4 m/s 766 mmHg 65%
    19:00 +10°C° 0 mm 3 m/s 766 mmHg 69%
    20:00 +9°C° 0 mm 3 m/s 766 mmHg 73%
    21:00 +7°C° 0 mm 3 m/s 767 mmHg 78%
    22:00 +5°C° 0 mm 3 m/s 767 mmHg 82%
    23:00 +6°C° 0 mm 2 m/s 767 mmHg 83%
    Arată mai mult